Location: ????????
(55.6167°N, 37.9667°E)
Time: 19:39:02
(UTC+00:00)

Daily predictions for brighter satellites

Satellite Brightness Start Highest point End
(mag) Time Altitude Azimuth Time Altitude Azimuth Time Altitude Azimuth
STARLINK-1084 4.2 16:35:08 10° W 16:39:09 50° SSW 16:43:11 10° ESE
ADEOS Rocket 3.4 16:35:03 10° NNE 16:42:07 84° WNW 16:48:25 10° SSW
USA 234 4.2 16:37:11 10° ENE 16:42:22 24° SE 16:47:32 10° S
SL-14 R/B 3.3 16:39:48 10° N 16:43:54 81° ENE 16:47:57 10° SSE
Cosmos 1980 3.7 16:38:18 10° SSW 16:43:59 79° ESE 16:49:43 10° NE
STARLINK-1098 4.2 16:40:07 10° W 16:44:07 48° SSW 16:48:08 10° ESE
Cosmos 2315 Rocket 4.3 16:39:59 10° SSE 16:45:59 48° E 16:52:03 10° NNE
STARLINK-1209 3.9 16:45:01 10° SW 16:47:33 27° SSE 16:50:05 10° E
STARLINK-1123 4.3 16:45:05 10° W 16:49:05 47° SSW 16:53:04 10° ESE
STARLINK-1228 3.8 16:47:12 10° SW 16:49:42 27° SSE 16:52:08 11° E
NOSS 2-2 (E) 4.5 16:45:51 10° NW 16:51:07 87° SW 16:58:27 10° SE
Meteor 2-8 Rocket 4.4 16:45:42 10° S 16:51:49 71° E 16:57:55 10° NNE
STARLINK-1097 4.3 16:50:03 10° W 16:54:01 45° SSW 16:57:58 10° SE
ERBS 2.3 16:51:23 10° WSW 16:54:44 66° SSE 16:58:06 10° ENE
Cosmos 1766 3.5 16:51:40 10° SSW 16:55:39 78° WNW 16:59:39 10° N
Resurs 1-3 3.9 16:52:04 10° SE 16:56:18 48° ENE 17:00:33 10° N
H-2A R/B 2.3 16:51:20 10° SSE 16:56:38 79° WSW 17:01:48 10° NNW
Cosmos 1626 2.3 16:53:36 10° NNW 16:57:19 78° W 17:01:01 10° S
SL-16 R/B 2.5 16:52:39 10° S 16:57:59 44° ESE 17:03:20 10° NE
SL-16 R/B 4.5 16:54:34 10° WNW 16:58:52 21° NNW 17:03:10 10° NNE
NOSS 2-2 (C) 4.4 16:53:49 10° NW 16:58:58 88° SW 17:06:09 10° SE
STARLINK-1099 4.3 16:55:02 10° W 16:59:00 44° SSW 17:02:45 11° SE
Cosmos 2333 Rocket 3.4 16:54:40 10° WSW 17:00:08 46° NW 17:05:37 10° NNE
STARLINK-1201 4.0 16:58:14 10° SW 17:01:07 29° SSE 17:03:34 13° E
STARLINK-67 3.3 17:00:19 10° SW 17:02:40 32° SSE 17:04:24 15° ESE
SL-08 RB Rocket 3.7 16:59:07 10° SSE 17:03:38 81° ENE 17:08:16 10° NNW
Cosmos 1709 Rocket 4.1 16:57:31 10° NNW 17:03:48 84° W 17:09:59 10° S
STARLINK-1104 4.4 17:00:02 10° W 17:03:57 42° SSW 17:07:33 12° SE
Cosmos 1302 Rocket 4.4 17:00:17 10° NNW 17:05:32 66° WSW 17:10:46 10° SSE
Resurs 01 Rocket 2.0 17:01:42 10° SE 17:05:53 44° ENE 17:10:07 10° N
Cosmos 1992 Rocket 4.1 17:02:22 10° NNW 17:07:35 65° ENE 17:12:46 10° SE
SeaSat 1 3.3 17:04:01 10° NNE 17:08:51 55° NW 17:13:40 10° SW
STARLINK-1144 4.4 17:05:01 10° W 17:08:55 41° SSW 17:12:20 13° SE
STARLINK-1230 4.5 17:05:36 10° SW 17:09:13 30° SSE 17:12:14 13° E
CZ-4C R/B 3.4 17:07:06 10° W 17:12:38 48° NNW 17:19:19 10° ENE
Cosmos 2360 Rocket 4.4 17:09:03 10° W 17:13:41 25° NNW 17:18:19 10° NNE
STARLINK-1243 4.4 17:10:20 10° SW 17:14:00 32° SSE 17:16:52 15° E
STARLINK-1233 3.7 17:12:01 10° SW 17:14:53 32° SSE 17:16:42 18° ESE
SL-24 R/B 4.5 17:10:30 10° NNE 17:15:06 43° E 17:19:07 10° SSE
STARLINK-1212 3.7 17:12:29 10° SW 17:15:20 32° SSE 17:17:07 18° ESE
STARLINK-1105 3.7 17:12:54 10° SW 17:15:47 33° SSE 17:17:34 18° ESE
STARLINK-1206 3.7 17:13:24 10° SW 17:16:15 33° SSE 17:17:59 18° ESE
Cosmos 1269 Rocket 4.0 17:11:01 10° SSW 17:16:16 72° ESE 17:21:35 10° NNE
FREGAT/IRIS 4.0 17:13:54 10° SSW 17:16:27 35° W 17:19:01 10° NNW
Cosmos 2084 3.9 17:12:01 10° WSW 17:16:29 69° NNW 17:20:59 10° NE
Cosmos 2074 Rocket 4.1 17:10:27 10° N 17:16:39 59° ENE 17:22:50 10° SSE
STARLINK-1247 3.7 17:13:50 10° SW 17:16:41 33° SSE 17:18:24 19° ESE
Cosmos 1953 3.0 17:13:27 10° SSE 17:17:02 33° E 17:20:38 10° NNE
STARLINK-1227 3.7 17:14:15 10° SW 17:17:07 33° SSE 17:18:52 19° ESE
STARLINK-1218 3.7 17:14:44 10° SW 17:17:35 33° SSE 17:19:17 19° ESE
STARLINK-1226 3.7 17:15:11 10° SW 17:18:02 33° SSE 17:19:43 19° ESE
STARLINK-1254 3.7 17:15:36 10° SW 17:18:28 33° SSE 17:20:10 19° ESE
STARLINK-1236 4.3 17:15:04 10° SW 17:18:45 33° SSE 17:21:27 16° E
STARLINK-1215 3.7 17:16:05 10° SW 17:18:57 33° SSE 17:20:35 20° ESE
STARLINK-1231 3.7 17:16:31 10° SW 17:19:23 33° SSE 17:21:00 20° ESE
STARLINK-1232 3.7 17:17:24 10° SW 17:20:16 34° SSE 17:21:52 20° ESE
STARLINK-1217 3.7 17:17:51 10° SW 17:20:44 34° SSE 17:22:19 20° ESE
STARLINK-1208 3.7 17:18:16 10° SW 17:21:10 34° SSE 17:22:46 20° ESE
STARLINK-1229 3.6 17:18:45 10° SW 17:21:38 34° SSE 17:23:10 21° ESE
STARLINK-1271 3.6 17:19:12 10° SW 17:22:04 34° SSE 17:23:37 21° ESE
STARLINK-1270 3.6 17:19:39 10° SW 17:22:31 34° SSE 17:24:03 21° ESE
STARLINK-1154 3.6 17:20:06 10° SW 17:22:58 34° SSE 17:24:29 21° ESE
Cosmos 1980 Rocket 4.5 17:19:29 10° NW 17:23:04 17° N 17:26:38 10° NE
STARLINK-1197 3.6 17:21:00 10° SW 17:23:53 35° SSE 17:25:21 22° ESE
Cosmos 2251 Rocket 4.3 17:19:19 10° SSE 17:23:58 31° ESE 17:28:40 10° NE
STARLINK-1189 3.6 17:21:26 10° SW 17:24:20 35° SSE 17:25:47 22° ESE
NOSS 2-1 (C) 3.7 17:21:14 10° WSW 17:24:41 60° NNW 17:28:50 10° NE
CZ-2C R/B 3.0 17:20:15 10° NNE 17:25:07 39° E 17:29:56 10° SSE
STARLINK-1187 3.5 17:22:14 10° SW 17:25:09 37° SSE 17:26:40 22° ESE
STARLINK-1188 3.6 17:22:20 10° SW 17:25:13 35° SSE 17:26:39 22° ESE
STARLINK-1198 3.6 17:22:21 10° SW 17:25:15 35° SSE 17:26:40 22° ESE
STARLINK-1235 3.5 17:22:51 10° SW 17:25:50 39° SSE 17:27:23 22° ESE
Cosmos 2084 Rocket 4.0 17:22:20 10° WNW 17:26:44 57° SW 17:30:25 14° SSE
STARLINK-1199 3.6 17:24:15 10° SW 17:27:10 36° SSE 17:28:34 23° ESE
Cosmos 1455 Rocket 3.7 17:22:58 10° SSW 17:27:16 58° WNW 17:31:37 10° N
Cosmos 2237 Rocket 2.7 17:21:55 10° SW 17:27:31 64° NW 17:33:09 10° NNE
STARLINK-1191 3.6 17:24:41 10° SW 17:27:37 36° SSE 17:29:00 23° ESE
ISS -2.5 17:24:58 10° W 17:27:57 30° SSW 17:29:45 18° SSE
STARLINK-1210 3.6 17:25:09 10° SW 17:28:04 36° SSE 17:29:26 24° ESE
SPOT 5 4.2 17:25:59 15° E 17:28:06 20° NE 17:31:18 10° N
STARLINK-1269 4.2 17:24:34 10° SW 17:28:20 36° SSE 17:30:43 19° E
STARLINK-1221 3.6 17:25:36 10° SW 17:28:31 36° SSE 17:29:52 24° ESE
NOSS 2-1 (D) 3.8 17:25:27 10° WSW 17:28:55 57° NNW 17:33:04 10° NE
STARLINK-1219 3.6 17:26:03 10° SW 17:28:58 36° SSE 17:30:19 24° ESE
STARLINK-1222 3.5 17:26:29 10° SW 17:29:26 37° SSE 17:30:45 24° ESE
STARLINK-1211 3.5 17:26:57 10° SW 17:29:52 37° SSE 17:31:10 24° ESE
STARLINK-1214 3.5 17:27:23 10° SW 17:30:19 37° SSE 17:31:36 25° ESE
Cosmos 1626 Rocket 4.2 17:26:03 10° NNW 17:30:24 57° W 17:34:41 10° S
STARLINK-1245 3.5 17:27:51 10° SW 17:30:47 37° SSE 17:32:01 25° ESE
Cosmos 1703 3.8 17:27:03 10° N 17:30:48 40° ENE 17:33:03 20° SE
STARLINK-1238 3.5 17:28:14 10° SW 17:31:11 37° SSE 17:32:27 25° ESE
ERS-1 Rocket 4.1 17:28:39 17° ESE 17:31:34 29° ENE 17:35:50 10° N
STARLINK-1205 3.5 17:29:09 10° SW 17:32:05 37° SSE 17:33:17 26° ESE
STARLINK-1204 3.5 17:29:38 10° SW 17:32:34 37° SSE 17:33:44 26° ESE
STARLINK-1200 4.2 17:29:17 10° SW 17:33:05 38° SSE 17:35:19 21° ESE
Cosmos 1656 Rocket 3.9 17:29:38 10° NNW 17:35:18 61° NE 17:39:17 19° SE
Cosmos 292 Rocket 3.9 17:30:51 10° NNW 17:35:39 77° WSW 17:40:00 13° SSE
ARGOS 4.1 17:31:05 10° S 17:36:19 48° W 17:41:33 10° NNW
IRIDIUM 104 4.3 17:31:04 10° N 17:36:20 85° E 17:41:33 10° S
STARLINK-1192 4.1 17:34:01 10° SW 17:37:49 39° SSE 17:39:54 23° ESE
IGS 5A 4.3 17:36:07 21° ESE 17:38:08 33° ENE 17:41:53 10° N
Cosmos 1602 Rocket 4.1 17:33:58 10° NNW 17:38:23 60° W 17:42:45 10° S
MOS 1 Rocket 3.7 17:36:39 10° NNE 17:41:43 54° E 17:46:59 10° S
STARLINK-1244 4.1 17:38:52 10° SW 17:42:43 40° SSE 17:44:37 25° ESE
COSMOS 2455 3.5 17:38:57 10° NW 17:44:43 44° NNE 17:48:52 18° E
IRIDIUM 114 4.4 17:40:14 10° N 17:45:29 83° W 17:50:43 10° S
STARLINK-1138 4.0 17:43:38 10° SW 17:47:30 42° SSE 17:49:14 27° ESE
CZ-2C R/B 4.5 17:44:43 10° SSW 17:49:17 35° W 17:53:42 10° NNW
NOSS 3-4 (A) 3.8 17:43:27 10° NW 17:50:09 75° NNE 17:55:16 22° ESE
NOSS 3-4 (C) 3.8 17:43:33 10° NW 17:50:15 74° NNE 17:55:21 22° ESE
STARLINK-1234 3.1 17:49:08 10° WSW 17:51:59 44° S 17:52:22 41° SE
STARLINK-1143 4.0 17:48:28 10° SW 17:52:22 43° SSE 17:53:56 29° ESE
Cosmos 2327 Rocket 4.5 17:48:28 10° N 17:54:45 74° ENE 17:59:56 16° SSE
SPOT 3 Rocket 4.4 17:51:12 10° S 17:56:15 50° W 18:01:21 10° NNW
Cosmos 2369 Rocket 2.6 17:51:16 10° NW 17:56:56 63° WSW 18:01:25 16° SSE
Cosmos 1825 Rocket 3.5 17:53:04 10° NNW 17:57:32 88° W 18:00:44 18° S
Cosmos 1437 2.6 17:54:52 10° NNW 17:57:55 76° W 17:59:13 31° S
Cosmos 1726 Rocket 4.1 17:56:39 28° SE 17:58:20 39° E 18:02:28 10° NNE
Cosmos 1470 3.5 17:54:48 10° SSW 17:58:36 53° WNW 18:02:28 10° N
STARLINK-1241 3.9 17:56:53 10° SW 18:00:47 46° SSE 18:02:00 34° ESE
Cosmos 2263 4.3 17:57:14 10° NW 18:02:51 73° WSW 18:06:37 21° SSE
NOSS 3-3 (A) 4.4 17:58:10 10° S 18:03:35 37° ESE 18:09:38 10° ENE
NOSS 3-3 (C) 4.4 17:58:18 10° S 18:03:42 37° ESE 18:09:44 10° ENE
Meteor 2-17 Rocket 4.4 17:59:11 10° N 18:05:21 76° ENE 18:09:42 21° SSE
STARLINK-1239 3.8 18:01:34 10° WSW 18:05:29 47° SSE 18:06:32 37° ESE
Cosmos 1461 3.6 18:01:49 10° NW 18:06:07 49° NNE 18:08:10 28° E
BREEZE-M DEB (TANK) 3.8 18:04:30 10° SW 18:06:13 16° SSW 18:06:13 16° SSW
Cosmos 1758 Rocket 3.9 18:02:54 10° NNW 18:07:15 63° W 18:10:42 15° S
CZ-2C R/B 4.1 18:03:44 10° NNE 18:08:31 69° WNW 18:13:12 10° SSW
Cosmos 2184 Rocket 4.2 18:02:11 10° NNW 18:08:32 74° W 18:14:47 10° S
STARLINK-1240 3.8 18:06:14 10° WSW 18:10:10 49° SSE 18:11:03 40° SE
Cosmos 1726 2.0 18:08:31 19° S 18:11:05 81° E 18:14:52 10° NNE
Aureole 2 Rocket 3.9 18:08:29 10° NW 18:11:41 33° WSW 18:13:43 18° SSW
SAR-Lupe-2 3.5 18:08:42 10° NNE 18:12:15 57° ESE 18:13:07 43° SSE
Cosmos 1953 Rocket 3.5 18:09:18 10° NNW 18:13:47 88° W 18:16:10 27° S
Cosmos 1908 3.4 18:13:53 44° SE 18:14:29 48° E 18:18:15 10° NNE
STARLINK-1216 3.7 18:10:58 10° WSW 18:14:54 50° SSE 18:15:37 44° SE
ATLAS CENTAUR R/B 3.4 18:12:37 10° NW 18:16:03 23° N 18:19:17 10° NE
Terra 2.6 18:15:01 30° E 18:16:26 37° ENE 18:20:48 10° N
Cosmos 2219 Rocket 4.5 18:13:18 10° W 18:17:51 24° NNW 18:22:24 10° NNE
Cosmos 1943 Rocket 3.4 18:13:21 10° NW 18:18:23 37° WSW 18:23:02 12° S
Spot 2 Rocket 3.5 18:15:30 24° SSE 18:18:40 84° WSW 18:23:49 10° NNW
STARLINK-1237 3.7 18:15:40 10° WSW 18:19:38 51° SSE 18:20:11 47° SE
STARLINK-1209 3.6 18:19:19 10° WSW 18:21:25 37° SW 18:21:25 37° SW
SPOT 1/Viking Rocket 3.5 18:20:13 32° SSE 18:22:42 75° ENE 18:27:56 10° NNW
ATLAS 2AS CENTAUR R/B 2.9 18:15:06 10° NW 18:22:56 85° SW 18:26:55 30° SE
STARLINK-1228 3.8 18:21:31 10° WSW 18:23:29 35° SW 18:23:29 35° SW
STARLINK-1202 3.7 18:20:24 10° WSW 18:24:22 53° SSE 18:24:45 50° SE
Cosmos 1943 3.4 18:19:43 13° S 18:24:32 48° ESE 18:29:59 10° NE
Cosmos 1606 Rocket 3.4 18:22:04 24° S 18:24:43 79° E 18:29:12 10° NNE
USA 234 3.2 18:19:52 10° ENE 18:26:21 60° SSE 18:32:48 10° SW
Meteor 2-10 4.2 18:22:00 10° SSW 18:27:24 84° WNW 18:33:03 10° NNE
Cosmos 2154 Rocket 4.1 18:23:15 10° NNW 18:29:37 78° W 18:34:10 20° S
ERBS 2.5 18:27:45 10° W 18:31:07 67° N 18:31:38 56° NE
STARLINK-1246 3.6 18:27:23 10° WSW 18:31:25 55° S 18:31:36 54° SSE
STARLINK-1201 3.9 18:33:50 10° WSW 18:36:08 38° SW 18:36:08 38° SW
STARLINK-1224 3.6 18:34:38 10° WSW 18:38:30 56° S 18:38:30 56° S
Cosmos 1340 Rocket 3.1 18:39:56 49° E 18:39:56 49° E 18:43:33 10° NNE
STARLINK-1203 3.6 18:36:15 10° WSW 18:39:56 55° S 18:39:56 55° S
USA 245 4.4 18:37:36 27° S 18:40:29 67° W 18:46:32 10° NNW
SL-16 R/B 3.1 18:36:36 10° WSW 18:42:06 50° NW 18:47:38 10° NNE
Resurs 01 Rocket 3.3 18:38:54 11° SSW 18:42:32 30° W 18:46:27 10° NNW
STARLINK-1225 3.7 18:39:26 10° WSW 18:43:08 55° SSW 18:43:08 55° SSW
Cosmos 1697 Rocket 4.2 18:38:59 10° NNW 18:43:48 27° NNE 18:46:45 18° ENE
Cosmos 921 Rocket 2.8 18:39:50 10° NNW 18:44:03 73° ENE 18:44:33 64° ESE
Cosmos 962 Rocket 4.4 18:37:48 10° NNW 18:44:04 90° NNW 18:47:03 33° S
Cosmos 407 Rocket 4.0 18:46:31 39° E 18:46:31 39° E 18:50:50 10° NE
GRACE-FO 1 4.5 18:47:37 79° E 18:47:37 79° E 18:51:21 10° N
GRACE-FO 2 4.5 18:48:01 80° E 18:48:01 80° E 18:51:44 10° N
STARLINK-1230 3.8 18:44:08 10° WSW 18:47:41 54° SSW 18:47:41 54° SSW
Cosmos 2228 3.2 18:45:53 26° SSW 18:48:11 69° WNW 18:52:31 10° N
Iridium 4 Rocket 3.3 18:44:35 10° N 18:49:01 51° E 18:49:07 51° E
Cosmos 2058 3.5 18:45:20 10° N 18:49:07 42° ENE 18:49:07 42° ENE
SL-8 Rocket 4.0 18:43:43 10° N 18:50:02 73° ENE 18:52:23 41° SSE
Nadezhda 1 Rocket 4.1 18:45:15 11° SSW 18:51:24 80° WNW 18:57:49 10° N
STARLINK-1243 3.9 18:48:56 10° WSW 18:52:19 51° SSW 18:52:19 51° SSW
Cosmos 1953 4.1 18:49:53 10° SW 18:53:27 31° WNW 18:57:03 10° N
STARLINK-1236 4.1 18:53:44 10° WSW 18:56:56 48° SW 18:56:56 48° SW
Cosmos 2366 rocket 3.9 18:51:39 10° N 18:57:48 68° ENE 18:59:36 46° SE
CZ-4C R/B 3.5 18:56:25 10° WNW 19:02:25 46° NNE 19:08:25 15° E
Cosmos 1603 3.6 18:58:00 10° SW 19:03:39 86° NW 19:09:19 10° NE
Mayak 0.6 19:00:41 10° NE 19:02:23 19° NE 19:02:23 19° NE
CZ-2C R/B 3.7 19:00:36 10° N 19:05:32 44° WNW 19:10:24 10° SW
Cosmos 614 Rocket 3.9 19:05:04 60° SE 19:05:33 64° ESE 19:10:45 10° NNE
SPOT 5 2.6 19:05:12 63° SSW 19:05:48 75° WSW 19:10:10 10° NNW
Cosmos 2251 Rocket 4.1 19:00:42 10° SW 19:06:00 59° WNW 19:11:22 10° NNE
Cosmos 2058 Rocket 3.1 19:05:24 54° SSW 19:06:24 80° WNW 19:10:57 10° N
STARLINK-1269 4.4 19:03:21 10° WSW 19:06:12 41° SW 19:06:12 41° SW
USA 32 4.4 19:03:39 10° N 19:08:45 47° ENE 19:09:07 46° E
Cosmos 1980 Rocket 3.8 19:04:27 10° NNW 19:09:04 25° NNE 19:11:57 17° ENE
ALOS 2 4.5 19:09:08 19° ENE 19:09:18 19° NE 19:12:22 10° N
ERS-1 Rocket 3.2 19:08:38 43° SSW 19:10:04 62° WSW 19:15:05 10° NNW
Cosmos 2237 Rocket 4.5 19:08:09 10° W 19:12:41 24° NNW 19:17:14 10° NNE
Iridium 2 4.4 19:13:55 48° NNE 19:13:55 48° NNE 19:16:48 10° N
Cosmos 1959 Rocket 4.4 19:06:59 10° N 19:13:24 85° ENE 19:15:16 49° SSE
Cosmos 220 Rocket 4.2 19:13:02 10° NNW 19:17:05 61° NE 19:17:05 61° NE
Cosmos 1892 3.4 19:18:53 10° N 19:21:56 50° NNE 19:21:56 50° NNE
SL-08 R/B 4.4 19:17:19 10° N 19:23:27 71° ENE 19:24:37 57° SE
Cosmos 1076 Rocket 3.5 19:19:38 10° NNW 19:23:36 76° N 19:23:36 76° N
Aureole 1 Rocket 4.1 19:19:24 22° SSW 19:24:45 81° ESE 19:30:57 10° NNE
RESURS DK-1 3.6 19:26:46 10° NNW 19:30:31 32° NE 19:30:31 32° NE
CARTOSAT-1 4.3 19:30:23 42° WSW 19:30:45 43° W 19:34:55 10° NNW
COSMOS 2455 2.9 19:25:02 10° NW 19:31:02 68° SW 19:32:01 58° S
Cosmos 1766 Rocket 4.4 19:31:42 10° N 19:35:23 42° NE 19:35:23 42° NE
In-Cosmos 22 Rocket 4.4 19:31:29 10° NNW 19:37:16 71° W 19:38:23 57° SSW
Cosmos 1023 Rocket 4.4 19:37:58 68° ENE 19:37:58 68° ENE 19:42:40 10° NNE
Cosmos 2151 3.7 19:36:22 10° N 19:39:39 47° NNE 19:39:39 47° NNE
NOSS 3-4 (A) 4.4 19:34:28 10° NW 19:40:55 44° SW 19:42:42 38° SSW
NOSS 3-4 (C) 4.4 19:34:34 10° NW 19:41:03 44° SW 19:42:48 38° SSW
Cosmos 1821 Rocket 4.1 19:35:38 10° N 19:41:56 63° ENE 19:42:48 57° ESE
ASTEX 1 3.6 19:43:27 62° ENE 19:43:27 62° ENE 19:48:07 10° N
Cosmos 1461 4.0 19:41:00 10° NW 19:44:33 41° W 19:44:33 41° W
Cosmos 1656 3.7 19:41:06 10° NNW 19:46:50 68° NE 19:47:21 64° E
Cosmos 1763 Rocket 3.4 19:42:09 10° NNW 19:47:26 77° ENE 19:47:27 77° ENE
Meteor 2-3 Rocket 4.3 19:43:38 10° N 19:49:12 44° ENE 19:49:35 44° ENE
Cosmos 192 4.3 19:44:55 10° NNW 19:49:39 77° WNW 19:49:39 77° WNW
Meteor 2-12 Rocket 4.5 19:45:19 10° NNW 19:51:27 72° W 19:52:30 59° SSW
Cosmos 1190 Rocket 3.9 19:51:34 78° WSW 19:51:54 84° WNW 19:57:14 10° NNE
Cosmos 2344 4.3 19:43:45 10° WNW 19:52:16 69° NNE 19:59:45 24° ESE
Cosmos 1812 Rocket 4.1 19:53:27 54° N 19:53:27 54° N 19:56:52 10° NNE
Cosmos 1570 Rocket 4.2 19:47:24 10° NNW 19:52:45 64° ENE 19:52:52 64° ENE
ATLAS 5 CENTAUR R/B 4.2 19:57:06 12° ENE 19:57:06 12° ENE 19:57:26 10° ENE
Cosmos 1300 4.0 19:53:59 40° NW 19:53:59 40° NW 19:56:57 10° N
NOSS 3-3 (A) 4.1 19:47:53 10° WSW 19:54:03 77° NNW 20:01:08 10° NE
NOSS 3-3 (C) 4.1 19:47:59 10° WSW 19:54:08 77° NW 20:01:14 10° NE
Terra 2.6 19:53:53 41° WSW 19:54:10 41° W 19:58:41 10° NNW
Cosmos 489 Rocket 4.4 19:48:00 10° NNW 19:54:15 74° ENE 19:55:00 66° ESE
Cosmos 1825 3.7 19:51:16 10° N 19:53:36 34° N 19:53:36 34° N
ATLAS CENTAUR R/B 2.7 19:52:11 10° NW 19:55:41 33° NNE 19:55:41 33° NNE
Cosmos 1818 3.5 19:58:41 85° NE 19:58:41 85° NE 20:04:01 10° NE
Cosmos 2369 4.0 19:53:09 10° NNW 19:58:44 54° NE 19:59:19 52° ENE
Cosmos 1934 Rocket 4.2 19:55:29 10° N 20:01:45 56° ENE 20:02:16 55° E
Spot 4 4.0 20:03:57 69° N 20:03:57 69° N 20:08:13 10° NNW
Cosmos 1943 4.1 20:03:12 10° WSW 20:08:40 47° NW 20:14:11 10° NNE
USA 234 3.2 20:03:04 10° ENE 20:09:39 85° NNW 20:16:13 10° W
Thor Agena Rocket 3.8 20:06:14 10° NNE 20:10:27 60° NE 20:10:27 60° NE
ATLAS 2AS CENTAUR R/B 3.9 20:06:44 10° WNW 20:13:03 30° WSW 20:14:21 28° SW
Cosmos 1140 Rocket 3.7 20:16:06 65° WNW 20:16:20 65° WNW 20:21:30 10° NNE
Cosmos 841 Rocket 3.6 20:11:48 10° NNW 20:16:45 72° NNE 20:16:45 72° NNE
Cosmos 676 Rocket 4.1 20:19:16 74° N 20:19:16 74° N 20:24:08 10° NNE
Cosmos 540 Rocket 3.6 20:15:25 10° NNW 20:20:08 68° NNE 20:20:08 68° NNE
Cosmos 2208 Rocket 4.1 20:16:31 10° NNW 20:21:11 71° N 20:21:11 71° N
Cosmos 468 Rocket 4.5 20:16:49 10° NW 20:21:22 52° W 20:21:22 52° W
Cosmos 1408 Rocket 4.5 20:20:47 10° N 20:24:04 48° N 20:24:04 48° N
Cosmos 407 Rocket 4.4 20:26:39 36° W 20:28:03 45° NW 20:32:59 10° NNE
Cosmos 1697 Rocket 2.7 20:22:56 10° NNW 20:28:28 77° NNE 20:28:28 77° NNE
SL-16 R/B 3.8 20:26:11 10° NNW 20:31:09 29° NNE 20:33:32 22° ENE
Mayak 0.1 20:35:57 10° N 20:38:57 38° NNW 20:38:57 38° NNW
ALOS 2 3.7 20:46:31 44° NNW 20:46:31 44° NNW 20:49:33 10° NNW
Cosmos 2322 Rocket 3.7 20:40:33 10° NNW 20:45:33 30° NE 20:47:51 23° ENE
Cosmos 2360 Rocket 4.2 20:41:19 10° NNW 20:45:48 23° NNE 20:50:11 10° ENE
Cosmos 2360 4.3 20:40:38 10° NNW 20:46:02 75° NNE 20:46:02 75° NNE
Cosmos 1954 Rocket 4.5 20:47:54 56° WNW 20:47:56 56° NW 20:53:06 10° NNE
BREEZE M DEB (TANK) 4.4 20:49:48 57° S 20:50:49 60° SSE 21:13:39 10° E
CZ-4C R/B 2.8 20:45:08 10° NW 20:51:51 77° NE 20:53:35 56° ESE
Cosmos 1980 Rocket 2.3 20:48:25 10° NNW 20:53:42 69° NNE 20:53:42 69° NNE
Nadezhda 3 Rocket 4.0 20:54:10 70° WSW 20:54:34 72° WNW 21:00:55 10° N
SL-24 R/B - RUBIN 2 4.3 20:54:44 83° NW 20:54:46 83° NW 21:01:20 10° NE
Cosmos 1535 Rocket 4.5 20:53:57 10° NNW 20:59:57 68° W 20:59:57 68° W
Cosmos 2278 3.9 20:58:54 10° NW 21:03:51 69° NW 21:03:51 69° NW
Cosmos 1455 4.4 21:08:33 24° NNW 21:08:33 24° NNW 21:10:29 10° N
RESURS DK-1 4.5 21:04:44 10° NW 21:06:25 23° NW 21:06:25 23° NW
Cosmos 1153 Rocket 4.5 21:05:00 10° N 21:11:16 75° ENE 21:11:16 75° ENE
COSMOS 2406 3.6 21:14:07 55° ENE 21:14:07 55° ENE 21:18:39 10° NE
Nimbus 7 Rocket 4.3 21:08:21 10° NNE 21:14:00 81° NNW 21:14:00 81° NNW
Cosmos 1727 Rocket 4.4 21:15:12 52° E 21:15:12 52° E 21:21:03 10° NNE
Meteor 2-10 Rocket 4.2 21:17:20 47° WNW 21:17:20 47° WNW 21:22:13 10° N
Cosmos 2221 4.0 21:19:00 35° NNE 21:19:00 35° NNE 21:21:35 10° NNE
Cosmos 2082 Rocket 3.5 21:19:02 30° ENE 21:19:02 30° ENE 21:22:31 10° NE
SME Rocket 4.4 21:15:04 10° NNE 21:18:59 40° NE 21:18:59 40° NE
Cosmos 2100 Rocket 4.1 21:22:01 10° N 21:28:12 66° ENE 21:28:14 66° ENE
Cosmos 1459 Rocket 4.2 21:21:53 10° N 21:28:14 62° ENE 21:28:31 62° E
Sich 1 4.4 21:24:31 10° N 21:27:26 38° N 21:27:26 38° N
ATLAS CENTAUR R/B 3.9 21:31:12 10° NW 21:31:52 14° NW 21:31:52 14° NW
ATLAS 5 CENTAUR R/B 2.7 21:38:35 46° NNE 21:38:35 46° NNE 21:42:32 10° NE
Cosmos 1605 Rocket 4.4 21:39:51 10° NNW 21:45:22 49° W 21:45:22 49° W
Cosmos 1833 Rocket 3.0 21:46:51 59° ENE 21:46:51 59° ENE 21:51:31 10° NE
Cosmos 2219 Rocket 4.3 21:45:17 10° NNW 21:49:53 25° NNE 21:54:27 10° E
Cosmos 2173 Rocket 3.9 21:44:33 10° N 21:50:31 82° NE 21:50:31 82° NE
CZ-2D R/B 4.1 21:47:32 10° NE 21:51:10 18° E 21:51:33 18° E
USA 234 3.2 21:46:07 10° E 21:52:40 83° N 21:59:14 10° WNW
Resurs 1-4 Rocket 4.1 21:49:16 10° NE 21:52:48 18° E 21:53:00 18° E
Cosmos 1633 Rocket 4.3 21:48:40 10° N 21:51:36 39° N 21:51:36 39° N
NOSS 2-1 (E) 4.4 21:55:34 10° NW 22:00:02 62° NNE 22:00:02 62° NNE
Cosmos 2061 Rocket 3.9 22:00:33 10° N 22:06:48 79° ENE 22:06:56 79° E
Cosmos 2344 4.3 21:58:06 10° NW 22:07:09 60° SW 22:09:43 51° S
SL-16 R/B 3.1 22:07:39 45° ESE 22:09:06 54° ENE 22:15:10 10° NNW
Cosmos 1697 Rocket 4.4 22:07:32 10° NW 22:10:12 21° WNW 22:10:12 21° WNW
SL-16 R/B 2.3 22:10:17 10° NW 22:15:22 71° NNW 22:15:22 71° NNW
Cosmos 2333 Rocket 3.8 22:13:17 10° NNW 22:18:21 32° NE 22:23:23 10° E
MOS 1-B Rocket 4.1 22:14:45 10° NNE 22:20:24 62° WNW 22:20:42 61° W
Cosmos 1000 Rocket 4.4 22:22:21 82° SE 22:22:32 84° E 22:28:55 10° NNE
Cosmos 1151 Rocket 4.3 22:27:27 39° NE 22:27:27 39° NE 22:30:27 10° NNE
Cosmos 968 Rocket 3.8 22:28:23 60° ENE 22:28:23 60° ENE 22:32:49 10° NNE
Cosmos 2322 Rocket 2.3 22:24:35 10° NW 22:29:38 71° NW 22:29:38 71° NW
Cosmos 2360 Rocket 2.5 22:25:20 10° NNW 22:30:56 61° NE 22:31:55 53° E
Helios 1B rocket 3.9 22:30:33 10° N 22:33:10 34° NNW 22:33:10 34° NNW
Cosmos 1980 Rocket 3.8 22:32:56 10° NW 22:35:28 22° WNW 22:35:28 22° WNW
CZ-4C R/B 3.5 22:33:44 10° NW 22:38:44 39° W 22:38:44 39° W
Cosmos 2237 Rocket 4.4 22:40:18 10° NNW 22:44:57 25° NNE 22:49:35 10° E
Cosmos 1503 Rocket 4.1 22:45:55 70° ENE 22:45:55 70° ENE 22:50:41 10° NNE
Cosmos 1606 4.2 22:54:00 35° NNE 22:54:00 35° NNE 22:56:22 10° NNE
USA 267 4.4 22:52:01 10° ENE 22:57:30 28° SE 22:57:37 28° SE
COSMOS 2406 4.4 22:56:09 30° WNW 22:57:43 35° NW 23:02:59 10° NNE
Cosmos 1802 Rocket 4.4 22:51:56 10° NNW 22:57:40 46° W 22:57:40 46° W
Cosmos 2082 Rocket 2.4 23:00:52 57° WNW 23:01:17 59° NW 23:06:55 10° NNE
Cosmos 1328 Rocket 4.3 23:02:24 49° N 23:02:24 49° N 23:05:40 10° N
CZ-4B R/B 4.0 22:58:05 10° NNE 23:02:48 48° E 23:02:48 48° E
Cosmos 1680 Rocket 4.3 23:00:21 10° NNW 23:05:27 50° NE 23:08:14 25° ESE
Cosmos 1538 Rocket 4.1 23:00:23 10° NNW 23:04:56 64° NW 23:04:56 64° NW
UNK 4.2 23:10:58 53° NW 23:10:58 53° NW 23:14:40 10° NNW
NPP 4.0 23:04:54 10° NNE 23:10:13 54° E 23:10:51 51° SE
Cosmos 2237 4.0 23:05:46 10° NW 23:11:31 80° WSW 23:11:34 80° SW
Cosmos 1725 Rocket 4.2 23:05:54 10° NNW 23:12:01 52° W 23:12:07 52° W
Cosmos 2233 Rocket 3.9 23:08:32 10° NNW 23:14:50 71° W 23:15:27 66° SW
SJ 16-02 3.8 23:16:33 12° ESE 23:17:54 13° E 23:20:03 10° ENE
Cosmos 1315 Rocket 4.2 23:18:59 32° NNW 23:18:59 32° NNW 23:21:46 10° N
Meteor 1-20 Rocket 4.4 23:13:47 10° NNW 23:19:19 56° W 23:19:19 56° W
COSMOS 2428 3.3 23:16:10 10° NNW 23:21:49 56° NE 23:27:25 10° SE
SL-08 R/B 4.0 23:20:43 38° ESE 23:22:16 55° ENE 23:27:08 10° N
Cosmos 44 3.4 23:23:05 60° ENE 23:23:05 60° ENE 23:26:44 10° NE
ATLAS 5 CENTAUR R/B 3.3 23:20:05 19° WNW 23:22:55 35° N 23:28:00 10° ENE
Cosmos 2123 Rocket 4.0 23:25:02 57° WSW 23:25:50 62° WNW 23:32:00 10° N
H-2A R/B 3.1 23:25:14 32° ESE 23:26:32 42° ENE 23:30:30 10° N
Cosmos 1733 Rocket 4.4 23:23:53 10° N 23:27:59 37° ENE 23:29:46 26° ESE
ARIANE 5 R/B 4.2 23:23:59 10° NE 23:28:25 28° E 23:30:51 20° SE
Cosmos 2322 3.7 23:23:25 10° NW 23:29:10 85° NE 23:31:47 34° SE
Cosmos 1833 Rocket 3.9 23:28:31 28° WNW 23:30:19 34° NW 23:35:26 10° NNE
Cosmos 1464 Rocket 4.1 23:24:50 10° N 23:31:01 72° ENE 23:33:42 35° SSE
CZ-2D R/B 2.1 23:26:34 10° NNE 23:32:04 82° ESE 23:32:53 65° S
Cosmos 2333 4.1 23:27:27 10° NW 23:33:06 85° NE 23:35:55 31° SE
Resurs 1-4 Rocket 2.0 23:28:06 10° NNE 23:33:27 85° ESE 23:34:05 70° S
SeaSat 1 4.0 23:29:43 10° ESE 23:34:10 35° NE 23:38:40 10° NNW
Cosmos 2219 Rocket 2.4 23:29:15 10° NNW 23:34:52 67° NE 23:40:27 10° SE
USA 234 3.1 23:29:25 10° SE 23:35:55 65° SSW 23:42:27 10° WNW
ADEOS II 3.0 23:32:33 10° NNE 23:37:34 42° E 23:39:24 32° SE
Meteor 1-11 Rocket 4.2 23:33:36 10° N 23:39:27 63° ENE 23:43:29 21° SSE
Cosmos 1666 4.3 23:38:46 10° N 23:42:11 32° ENE 23:43:31 25° ESE
Cosmos 44 Rocket 4.3 23:44:32 33° SE 23:44:56 33° ESE 23:49:09 10° ENE
Cosmos 1447 Rocket 4.4 23:44:16 53° SSW 23:45:54 81° WNW 23:52:17 10° N
CZ-4C R/B 4.2 23:47:12 37° ENE 23:47:12 37° ENE 23:50:06 10° N
Cosmos 2112 Rocket 4.0 23:41:59 10° NNW 23:47:14 81° ENE 23:50:02 28° SE
Cosmos 1782 3.1 23:50:10 61° NNW 23:50:10 61° NNW 23:53:37 10° N
Cosmos 1607 4.0 23:48:47 48° WSW 23:50:35 73° NW 23:56:53 10° NE
SL-16 R/B 3.0 23:52:44 40° WSW 23:52:57 40° W 23:58:48 10° NNW
Cosmos 1869 Rocket 4.0 23:49:08 10° NNW 23:52:45 48° WNW 23:52:45 48° WNW
Cosmos 1812 3.6 23:55:27 41° ESE 23:55:57 43° E 23:59:39 10° NNE
